[[{"header":{"parameterUnit":"m.s-1","parameterCategory":1,"la1":30.2991,"la2":30.254,"lo1":-89.0895,"lo2":-89.0444,"dy":0.0017,"dx":0.0017,"nx":28,"ny":28,"refTime":"2024-10-12T09:00:00:Z","depth":0,"parameterNumber":2,"parameterNumberName":"U-component_of_WINDS"},"data":[0,0,0,0,0,0,0,0,0,0,0,0,0,0,0,0,0,0,0,0,0,0,0,0,0,0,0,0,0,0,0,0,0,0,0,0,0,0,0,0,0,0,0,0,0,0,0,0,0,0,0,0,0,0,0,0,0,0,-0.0457,-0.0457,0,-0.0448,-0.0448,-0.0448,-0.0431,-0.043,-0.043,-0.043,-0.0422,-0.0422,-0.0422,0,0,0,0,0,0,0,0,0,0,0,0,0,-0.0462,-0.0462,-0.0457,-0.0457,-0.0457,-0.0448,-0.0448,-0.0448,-0.0431,-0.043,-0.043,-0.043,-0.0422,-0.0422,-0.0422,0,0,0,0,0,0,0,0,0,0,0,0,0,-0.0457,-0.0462,-0.0457,-0.0447,-0.0446,-0.0448,-0.0448,-0.0448,-0.0431,-0.043,-0.043,-0.0429,-0.0422,-0.0422,-0.0422,-0.0433,0,0,-0.0423,-0.0423,0,0,0,0,0,0,0,0,-0.0457,-0.0457,-0.0449,-0.0448,-0.0447,-0.044,-0.0447,-0.0443,-0.0431,-0.0437,-0.043,-0.0429,-0.0428,-0.0428,-0.0428,-0.0433,-0.0433,-0.0423,-0.0423,-0.0423,-0.0423,0,0,0,0,0,0,0,-0.0458,-0.0457,-0.0454,-0.0449,-0.0447,-0.0444,-0.0443,-0.0446,-0.0436,-0.0436,-0.0435,-0.0434,-0.0428,-0.0427,-0.0427,-0.0433,-0.0423,-0.0423,-0.0423,-0.0423,-0.0449,-0.0449,0,0,0,0,0,0,-0.0459,-0.0458,-0.0454,-0.0453,-0.0451,-0.0444,-0.0443,-0.0443,-0.0436,-0.0434,-0.0434,-0.0433,-0.0427,-0.0427,-0.0427,-0.0441,-0.0423,-0.0423,-0.0423,-0.0448,-0.0449,-0.045,0,0,0,0,0,0,-0.0459,-0.0459,-0.0454,-0.0455,-0.0454,-0.0445,-0.0445,-0.0443,-0.0442,-0.0434,-0.0432,-0.0436,-0.0427,-0.0427,-0.0432,-0.044,-0.0423,-0.0423,-0.0447,-0.0448,-0.0449,-0.0468,0,0,0,0,0,0,-0.046,-0.0459,-0.0463,-0.0455,-0.0454,-0.0459,-0.0445,-0.0443,-0.0442,-0.0441,-0.0435,-0.0434,-0.0427,-0.0432,-0.0432,-0.044,-0.0423,-0.0447,-0.0448,-0.0449,-0.0466,-0.0469,-0.0472,0,0,0,0,0,-0.046,-0.0468,-0.0463,-0.0463,-0.0458,-0.0459,-0.0459,-0.045,-0.0443,-0.0447,-0.0442,-0.0434,-0.0439,-0.0433,-0.0433,-0.0441,-0.0446,-0.0448,-0.0449,-0.0465,-0.0469,-0.0471,0,0,0,0,0,0,-0.0477,-0.0467,-0.0461,-0.0467,-0.0464,-0.0456,-0.0461,-0.0454,-0.0453,-0.0452,-0.0442,-0.044,-0.0448,-0.0445,-0.0438,-0.0452,-0.0441,-0.0443,-0.0454,-0.0457,-0.046,-0.0461,-0.0424,0,0,0,0,0,-0.0482,-0.0483,-0.0474,-0.048,-0.0479,-0.047,-0.0471,-0.0464,-0.0461,-0.046,-0.0455,-0.0453,-0.0454,-0.0455,-0.0456,-0.0466,-0.0465,-0.0472,-0.0474,-0.0476,-0.0478,-0.0484,-0.0488,-0.0454,-0.0454,-0.0454,0,0,-0.0491,-0.0486,-0.0487,-0.0484,-0.0481,-0.0483,-0.0469,-0.0472,-0.0474,-0.046,-0.0466,-0.0462,-0.0459,-0.0467,-0.0471,-0.0465,-0.0487,-0.0478,-0.048,-0.048,-0.0486,-0.0489,-0.0492,-0.0455,-0.0455,-0.0454,0,0,-0.0509,-0.0505,-0.051,-0.0508,-0.0503,-0.0497,-0.0499,-0.0492,-0.049,-0.0495,-0.0485,-0.0487,-0.0489,-0.0488,-0.0488,-0.0507,-0.05,-0.0508,-0.0521,-0.0528,-0.0531,-0.0533,-0.0541,-0.0544,-0.0509,-0.0509,-0.0509,0,-0.0522,-0.0524,-0.0514,-0.0518,-0.0517,-0.0505,-0.0511,-0.0509,-0.0505,-0.0506,-0.0499,-0.0503,-0.05,-0.0508,-0.0513,-0.0513,-0.0515,-0.0508,-0.0531,-0.0533,-0.0535,-0.0543,-0.0546,-0.051,-0.051,-0.051,-0.051,0,-0.054,-0.0542,-0.0547,-0.0544,-0.0544,-0.0549,-0.054,-0.0542,-0.0536,-0.0531,-0.0538,-0.0533,-0.0534,-0.0535,-0.0529,-0.0543,-0.054,-0.0532,-0.0522,-0.054,-0.0547,-0.055,-0.0512,-0.0511,-0.0511,-0.0511,0,0,-0.0569,-0.056,-0.0563,-0.0562,-0.0556,-0.0558,-0.0563,-0.0563,-0.0565,-0.0564,-0.0568,-0.0571,-0.0564,-0.0564,-0.0558,-0.0563,-0.0581,-0.0555,-0.0555,-0.0561,-0.0598,-0.0605,-0.0608,-0.0576,-0.0576,-0.0577,-0.0599,0,-0.0587,-0.0594,-0.0586,-0.0596,-0.0598,-0.0587,-0.0592,-0.059,-0.0586,-0.0588,-0.0584,-0.0586,-0.0577,-0.0577,-0.0582,-0.0578,-0.0588,-0.0576,-0.0582,-0.0582,-0.0584,-0.0612,-0.0618,-0.0639,-0.0601,-0.0602,-0.0602,0,-0.0609,-0.0608,-0.0618,-0.0613,-0.0614,-0.0618,-0.0619,-0.062,-0.0619,-0.0615,-0.0616,-0.0608,-0.0614,-0.0603,-0.0612,-0.0604,-0.0606,-0.0604,-0.0605,-0.0606,-0.0594,-0.0615,-0.0646,-0.0649,-0.0606,-0.0606,-0.0606,0,-0.063,-0.0632,-0.0638,-0.0638,-0.0632,-0.0636,-0.0634,-0.0631,-0.0632,-0.0633,-0.0634,-0.0635,-0.0636,-0.0637,-0.0631,-0.0623,-0.0641,-0.0629,-0.064,-0.064,-0.0645,-0.0645,-0.0678,-0.0644,-0.0644,-0.0644,-0.0644,0,-0.0652,-0.0659,-0.0648,-0.0652,-0.066,-0.0651,-0.0659,-0.0656,-0.0654,-0.0659,-0.0649,-0.0653,-0.0644,-0.0648,-0.0643,-0.0652,-0.0652,-0.0651,-0.065,-0.0652,-0.0653,-0.0654,-0.0653,-0.0645,-0.0645,-0.0645,-0.0645,0,-0.0678,-0.0671,-0.0677,-0.0672,-0.0671,-0.0677,-0.0672,-0.0677,-0.0672,-0.0678,-0.0679,-0.0672,-0.0677,-0.067,-0.0674,-0.0671,-0.0683,-0.0679,-0.0684,-0.0683,-0.0695,-0.0694,-0.0731,-0.0736,-0.0698,-0.0698,-0.0699,0,-0.0692,-0.0698,-0.0693,-0.0695,-0.0693,-0.0696,-0.0698,-0.0689,-0.0691,-0.069,-0.0695,-0.0698,-0.07,-0.0707,-0.0704,-0.0707,-0.0703,-0.0716,-0.0704,-0.0707,-0.0705,-0.0706,-0.0707,-0.0719,-0.0719,-0.072,-0.072,0,-0.072,-0.0717,-0.0718,-0.0719,-0.0721,-0.0721,-0.0721,-0.0724,-0.0715,-0.0718,-0.0722,-0.0723,-0.0727,-0.0731,-0.0733,-0.0732,-0.0725,-0.0724,-0.0727,-0.073,-0.0733,-0.0733,-0.0692,-0.0723,-0.0723,-0.0723,-0.0722,-0.0722,-0.0742,-0.0746,-0.0744,-0.0747,-0.0746,-0.0746,-0.075,-0.0746,-0.0749,-0.0752,-0.0747,-0.0752,-0.0752,-0.0754,-0.0754,-0.0759,-0.0753,-0.0757,-0.0758,-0.076,-0.0762,-0.0731,-0.0759,-0.0759,-0.0759,-0.0759,-0.0759,0,-0.077,-0.0768,-0.077,-0.0771,-0.0773,-0.0766,-0.0765,-0.0768,-0.0773,-0.0773,-0.0775,-0.0781,-0.0785,-0.0782,-0.0785,-0.079,-0.0787,-0.0792,-0.0792,-0.0792,-0.0766,-0.0764,-0.0794,-0.0794,-0.0794,-0.0794,-0.0794,-0.0794,-0.0785,-0.0793,-0.0789,-0.0797,-0.0795,-0.08,-0.0801,-0.0802,-0.0802,-0.0808,-0.0811,-0.0809,-0.0808,-0.0812,-0.0816,-0.0815,-0.0817,-0.0823,-0.0821,-0.0797,-0.0794,-0.079,-0.0788,-0.0823,-0.0823,-0.0847,-0.0847,-0.0847]},{"header":{"parameterUnit":"m.s-1","parameterCategory":1,"la1":30.2991,"la2":30.254,"lo1":-89.0895,"lo2":-89.0444,"dy":0.0017,"dx":0.0017,"nx":28,"ny":28,"refTime":"2024-10-12T09:00:00:Z","depth":0,"parameterNumber":3,"parameterNumberName":"V-component_of_WINDS"},"data":[0,0,0,0,0,0,0,0,0,0,0,0,0,0,0,0,0,0,0,0,0,0,0,0,0,0,0,0,0,0,0,0,0,0,0,0,0,0,0,0,0,0,0,0,0,0,0,0,0,0,0,0,0,0,0,0,0,0,2.8431,2.8431,0,2.8398,2.8397,2.8397,2.8383,2.8383,2.8383,2.8383,2.8345,2.8344,2.8343,0,0,0,0,0,0,0,0,0,0,0,0,0,2.8478,2.8477,2.8431,2.8431,2.843,2.8398,2.8397,2.8397,2.8383,2.8383,2.8383,2.8383,2.8345,2.8344,2.8343,0,0,0,0,0,0,0,0,0,0,0,0,0,2.8452,2.8477,2.8431,2.8419,2.8418,2.8398,2.8397,2.8397,2.8383,2.8383,2.8383,2.8383,2.8346,2.8344,2.8343,2.8331,0,0,2.8338,2.8337,0,0,0,0,0,0,0,0,2.8454,2.845,2.8421,2.842,2.8419,2.8395,2.84,2.8374,2.8383,2.8396,2.8383,2.8383,2.8361,2.8358,2.8352,2.8329,2.8327,2.8337,2.8337,2.8336,2.8335,0,0,0,0,0,0,0,2.8455,2.8452,2.8418,2.8421,2.8419,2.8414,2.8411,2.8395,2.8378,2.8395,2.8394,2.839,2.836,2.8353,2.8351,2.8327,2.8338,2.8336,2.8335,2.8334,2.8291,2.8291,0,0,0,0,0,0,2.846,2.8453,2.8419,2.8417,2.8437,2.8413,2.841,2.8402,2.8378,2.8375,2.839,2.839,2.8356,2.8353,2.8349,2.8333,2.8336,2.8334,2.8333,2.8291,2.8291,2.8291,0,0,0,0,0,0,2.8461,2.8457,2.842,2.8435,2.843,2.8413,2.8404,2.8401,2.8394,2.8375,2.8372,2.8387,2.8356,2.8352,2.8335,2.8332,2.8334,2.8332,2.8291,2.8291,2.8291,2.8301,0,0,0,0,0,0,2.8462,2.8457,2.8454,2.8435,2.8429,2.8408,2.8404,2.8401,2.8392,2.8391,2.8371,2.8367,2.8356,2.8338,2.8334,2.833,2.8331,2.8292,2.8291,2.8291,2.8301,2.8301,2.8302,0,0,0,0,0,2.8464,2.8457,2.8453,2.8449,2.8424,2.8408,2.8404,2.8393,2.8392,2.8387,2.8375,2.8368,2.8333,2.8336,2.8332,2.8327,2.8292,2.8291,2.8291,2.8301,2.8301,2.8302,0,0,0,0,0,0,2.8474,2.8454,2.845,2.8437,2.8425,2.8406,2.84,2.8393,2.838,2.8379,2.8364,2.8359,2.8344,2.8334,2.8338,2.8313,2.8312,2.831,2.8321,2.8321,2.8321,2.8324,2.8329,0,0,0,0,0,2.8475,2.8465,2.8448,2.8438,2.8432,2.8417,2.8409,2.8402,2.8387,2.8381,2.8368,2.8353,2.8338,2.8329,2.8315,2.83,2.8294,2.8294,2.8294,2.8294,2.8293,2.8284,2.8283,2.8289,2.8289,2.8289,0,0,2.8477,2.8465,2.8459,2.844,2.8429,2.8417,2.8412,2.84,2.8391,2.8379,2.8363,2.8353,2.8335,2.8319,2.8311,2.831,2.829,2.8294,2.8294,2.8293,2.8283,2.8283,2.8282,2.8289,2.8289,2.8289,0,0,2.8474,2.8464,2.8455,2.8444,2.8429,2.8419,2.8416,2.8398,2.8391,2.8376,2.8366,2.8354,2.833,2.8317,2.8308,2.83,2.8293,2.8296,2.8297,2.8288,2.8287,2.8286,2.8283,2.8282,2.8295,2.8295,2.8295,0,2.8477,2.8461,2.845,2.8439,2.843,2.842,2.841,2.84,2.8379,2.8373,2.8372,2.8341,2.8329,2.831,2.8308,2.8301,2.8297,2.8298,2.8288,2.8288,2.8287,2.8283,2.8282,2.8295,2.8295,2.8295,2.8295,0,2.8466,2.8455,2.8449,2.8431,2.8422,2.8411,2.8397,2.8389,2.8381,2.8371,2.8355,2.8339,2.8321,2.8316,2.8309,2.8296,2.8295,2.8292,2.8289,2.8287,2.8283,2.8282,2.8296,2.8296,2.8296,2.8295,0,0,2.8469,2.8445,2.8443,2.8435,2.8417,2.8407,2.8395,2.8379,2.8372,2.8358,2.8347,2.8327,2.8323,2.8312,2.8303,2.8295,2.8289,2.8292,2.8291,2.8292,2.8273,2.8276,2.8275,2.8284,2.8284,2.8284,2.8275,0,2.8463,2.8443,2.8433,2.8416,2.8405,2.8395,2.8385,2.8371,2.8361,2.8349,2.8338,2.8323,2.832,2.8313,2.8305,2.8292,2.8285,2.8292,2.8273,2.8272,2.8277,2.8273,2.8276,2.8268,2.8273,2.8273,2.8273,0,2.8454,2.8441,2.8425,2.8407,2.8402,2.8393,2.8378,2.8367,2.8351,2.8344,2.8332,2.8323,2.8309,2.8308,2.8288,2.8293,2.8284,2.8276,2.8275,2.8273,2.8272,2.827,2.8265,2.8264,2.8271,2.8271,2.8271,0,2.8457,2.8436,2.8423,2.8416,2.8396,2.839,2.8381,2.8365,2.8356,2.8342,2.8336,2.8319,2.831,2.8297,2.8283,2.8284,2.8264,2.8262,2.8256,2.8257,2.8252,2.8253,2.8246,2.8247,2.8247,2.8247,2.8248,0,2.8451,2.8441,2.8424,2.8416,2.8404,2.8392,2.838,2.837,2.8356,2.8345,2.8335,2.8324,2.8307,2.8294,2.8283,2.8267,2.8263,2.8256,2.8253,2.8256,2.8257,2.825,2.825,2.8247,2.8247,2.8247,2.8247,0,2.8453,2.8441,2.8426,2.8409,2.8404,2.8396,2.838,2.8371,2.836,2.8346,2.8342,2.8325,2.8309,2.8294,2.8273,2.8265,2.8249,2.8245,2.8255,2.8253,2.8248,2.8249,2.8236,2.8234,2.8237,2.8237,2.8237,0,2.845,2.8442,2.8424,2.8416,2.8408,2.8396,2.8387,2.8374,2.8364,2.8346,2.8339,2.8323,2.8309,2.8283,2.8268,2.8251,2.8247,2.8243,2.8244,2.8248,2.8246,2.8246,2.8245,2.8243,2.8243,2.8243,2.8243,0,2.8446,2.8441,2.8429,2.8415,2.8405,2.8392,2.838,2.8374,2.8358,2.8348,2.8332,2.8322,2.83,2.8283,2.8265,2.8253,2.8245,2.8244,2.8241,2.8245,2.825,2.8247,2.8255,2.8244,2.8244,2.8244,2.8244,2.8244,2.8445,2.8437,2.8423,2.841,2.84,2.8388,2.8379,2.8368,2.8355,2.8337,2.833,2.8313,2.8297,2.8271,2.826,2.8246,2.8245,2.8242,2.8241,2.824,2.824,2.8253,2.8243,2.8243,2.8243,2.8243,2.8243,0,2.844,2.8431,2.8419,2.8402,2.8391,2.8386,2.8372,2.8363,2.8349,2.8335,2.8322,2.8304,2.8287,2.8271,2.8253,2.8245,2.8241,2.8241,2.8241,2.8238,2.8243,2.8247,2.8244,2.8244,2.8244,2.8245,2.8245,2.8245,2.8436,2.8423,2.8416,2.8397,2.8387,2.8372,2.8364,2.8353,2.8342,2.8322,2.8309,2.8299,2.8284,2.8265,2.8249,2.8244,2.8238,2.8239,2.8233,2.8238,2.8238,2.8238,2.8241,2.8238,2.8238,2.823,2.8229,2.8229]}]]